Time,TemperatureF,DewpointF,PressureIn,WindDirection,WindDirectionDegrees,WindSpeedMPH,WindSpeedGustMPH,Humidity,HourlyPrecipIn,Conditions,Clouds,dailyrainin,SoftwareType,DateUTC
2013-04-15 00:00:00,47.5,31.6,29.62,WSW,249,0.0,5.0,54,0.00,CLR,,0.00,WeatherDisplay:10.37,2013-04-15 07:00:00,
2013-04-15 00:05:00,47.5,31.6,29.62,WSW,249,1.0,5.0,54,0.00,CLR,,0.00,WeatherDisplay:10.37,2013-04-15 07:05:00,
2013-04-15 00:45:00,48.2,34.1,29.62,NNW,347,0.0,3.0,58,0.00,CLR,,0.00,WeatherDisplay:10.37,2013-04-15 07:45:00,
2013-04-15 00:50:00,48.2,34.1,29.62,NW,307,0.0,3.0,58,0.00,CLR,,0.00,WeatherDisplay:10.37,2013-04-15 07:50:00,
2013-04-15 00:55:00,48.6,35.7,29.62,West,262,2.0,6.0,61,0.00,CLR,,0.00,WeatherDisplay:10.37,2013-04-15 07:55:00,
2013-04-15 01:00:00,48.6,35.7,29.62,West,265,2.0,5.0,61,0.00,CLR,,0.00,WeatherDisplay:10.37,2013-04-15 08:00:00,
2013-04-15 01:05:00,48.6,35.7,29.62,WSW,257,0.0,4.0,61,0.00,CLR,,0.00,WeatherDisplay:10.37,2013-04-15 08:05:00,
2013-04-15 01:10:00,48.6,35.7,29.62,WSW,239,0.0,6.0,61,0.00,CLR,,0.00,WeatherDisplay:10.37,2013-04-15 08:10:00,
2013-04-15 01:20:00,48.6,35.7,29.62,West,267,0.0,3.0,61,0.00,CLR,,0.00,WeatherDisplay:10.37,2013-04-15 08:20:00,
2013-04-15 01:25:00,48.6,35.7,29.62,NE,54,0.0,4.0,61,0.00,CLR,,0.00,WeatherDisplay:10.37,2013-04-15 08:25:00,
2013-04-15 01:30:00,48.6,35.7,29.62,NE,56,2.0,5.0,61,0.00,CLR,,0.00,WeatherDisplay:10.37,2013-04-15 08:30:00,
2013-04-15 01:35:00,48.4,35.1,29.62,East,91,3.0,5.0,60,0.00,CLR,,0.00,WeatherDisplay:10.37,2013-04-15 08:35:00,
2013-04-15 01:40:00,48.4,35.1,29.62,SE,143,0.0,8.0,60,0.00,CLR,,0.00,WeatherDisplay:10.37,2013-04-15 08:40:00,
2013-04-15 01:45:00,48.4,35.1,29.62,ESE,123,0.0,6.0,60,0.00,CLR,,0.00,WeatherDisplay:10.37,2013-04-15 08:45:00,
2013-04-15 01:50:00,47.7,33.6,29.62,ESE,107,3.0,6.0,58,0.00,CLR,,0.00,WeatherDisplay:10.37,2013-04-15 08:50:00,
2013-04-15 01:54:00,47.3,33.7,29.62,ESE,120,3.0,6.0,59,0.00,CLR,,0.00,WeatherDisplay:10.37,2013-04-15 08:54:00,
2013-04-15 02:00:00,47.1,33.5,29.62,SE,124,1.0,8.0,59,0.00,CLR,,0.00,WeatherDisplay:10.37,2013-04-15 09:00:00,
2013-04-15 02:04:00,47.1,33.5,29.62,ESE,110,3.0,10.0,59,0.00,CLR,,0.00,WeatherDisplay:10.37,2013-04-15 09:04:00,
2013-04-15 02:10:00,47.1,33.5,29.62,ESE,119,0.0,5.0,59,0.00,CLR,,0.00,WeatherDisplay:10.37,2013-04-15 09:10:00,
2013-04-15 02:20:00,46.0,32.9,29.62,SW,214,2.0,8.0,60,0.00,CLR,,0.00,WeatherDisplay:10.37,2013-04-15 09:20:00,
2013-04-15 02:25:00,45.9,32.8,29.62,WSW,252,3.0,7.0,60,0.00,CLR,,0.00,WeatherDisplay:10.37,2013-04-15 09:25:00,
2013-04-15 02:34:00,44.6,33.2,29.59,SW,214,3.0,8.0,64,0.00,CLR,,0.00,WeatherDisplay:10.37,2013-04-15 09:34:00,
2013-04-15 02:40:00,44.6,33.2,29.59,SW,223,2.0,6.0,64,0.00,CLR,,0.00,WeatherDisplay:10.37,2013-04-15 09:40:00,
2013-04-15 02:45:00,44.6,33.2,29.59,SSE,165,3.0,8.0,64,0.00,CLR,,0.00,WeatherDisplay:10.37,2013-04-15 09:45:00,
2013-04-15 02:50:00,44.6,33.2,29.59,SE,135,2.0,6.0,64,0.00,CLR,,0.00,WeatherDisplay:10.37,2013-04-15 09:50:00,
2013-04-15 02:59:00,44.6,33.2,29.59,ENE,70,2.0,6.0,64,0.00,CLR,,0.00,WeatherDisplay:10.37,2013-04-15 09:59:00,
2013-04-15 03:05:00,44.6,33.2,29.59,SW,218,3.0,8.0,64,0.00,CLR,,0.00,WeatherDisplay:10.37,2013-04-15 10:05:00,
2013-04-15 03:10:00,44.6,33.2,29.59,SSW,211,5.0,8.0,64,0.00,CLR,,0.00,WeatherDisplay:10.37,2013-04-15 10:10:00,
2013-04-15 03:14:00,44.6,33.2,29.59,SSW,210,2.0,7.0,64,0.00,CLR,,0.00,WeatherDisplay:10.37,2013-04-15 10:14:00,
2013-04-15 03:20:00,44.6,33.2,29.59,South,177,0.0,5.0,64,0.00,CLR,,0.00,WeatherDisplay:10.37,2013-04-15 10:20:00,
2013-04-15 03:24:00,44.6,33.2,29.59,SSW,197,2.0,5.0,64,0.00,CLR,,0.00,WeatherDisplay:10.37,2013-04-15 10:24:00,
2013-04-15 03:30:00,44.6,33.2,29.59,SW,232,3.0,6.0,64,0.00,CLR,,0.00,WeatherDisplay:10.37,2013-04-15 10:30:00,
2013-04-15 03:40:00,44.6,33.2,29.59,SSE,154,3.0,5.0,64,0.00,CLR,,0.00,WeatherDisplay:10.37,2013-04-15 10:40:00,
2013-04-15 03:45:00,44.6,33.2,29.62,SSE,154,2.0,5.0,64,0.00,CLR,,0.00,WeatherDisplay:10.37,2013-04-15 10:45:00,
2013-04-15 03:50:00,44.6,33.2,29.62,East,81,2.0,7.0,64,0.00,CLR,,0.00,WeatherDisplay:10.37,2013-04-15 10:50:00,
2013-04-15 03:55:00,44.6,33.2,29.62,East,88,2.0,6.0,64,0.00,CLR,,0.00,WeatherDisplay:10.37,2013-04-15 10:55:00,
2013-04-15 04:00:00,44.6,33.2,29.59,ENE,65,0.0,4.0,64,0.00,CLR,,0.00,WeatherDisplay:10.37,2013-04-15 11:00:00,
2013-04-15 04:04:00,44.6,33.2,29.59,SSW,201,2.0,6.0,64,0.00,CLR,,0.00,WeatherDisplay:10.37,2013-04-15 11:04:00,
2013-04-15 04:10:00,44.6,33.2,29.59,SSW,203,2.0,5.0,64,0.00,CLR,,0.00,WeatherDisplay:10.37,2013-04-15 11:10:00,
2013-04-15 04:20:00,44.6,33.2,29.59,SW,234,2.0,5.0,64,0.00,CLR,,0.00,WeatherDisplay:10.37,2013-04-15 11:20:00,
2013-04-15 04:25:00,44.6,33.2,29.59,SW,216,2.0,6.0,64,0.00,CLR,,0.00,WeatherDisplay:10.37,2013-04-15 11:25:00,
2013-04-15 04:30:00,44.6,33.2,29.59,SW,218,0.0,6.0,64,0.00,CLR,,0.00,WeatherDisplay:10.37,2013-04-15 11:30:00,
2013-04-15 04:35:00,44.6,33.2,29.59,NNE,25,3.0,6.0,64,0.00,CLR,,0.00,WeatherDisplay:10.37,2013-04-15 11:35:00,
2013-04-15 04:40:00,44.6,33.2,29.59,NNW,339,2.0,5.0,64,0.00,CLR,,0.00,WeatherDisplay:10.37,2013-04-15 11:40:00,
2013-04-15 04:45:00,44.6,33.2,29.59,SSW,203,3.0,6.0,64,0.00,CLR,,0.00,WeatherDisplay:10.37,2013-04-15 11:45:00,
2013-04-15 04:50:00,44.6,33.2,29.59,SW,217,2.0,6.0,64,0.00,CLR,,0.00,WeatherDisplay:10.37,2013-04-15 11:50:00,
2013-04-15 04:59:00,44.6,33.2,29.59,SSW,213,2.0,8.0,64,0.00,CLR,,0.00,WeatherDisplay:10.37,2013-04-15 11:59:00,
2013-04-15 05:04:00,44.6,33.2,29.59,SE,146,2.0,8.0,64,0.00,CLR,,0.00,WeatherDisplay:10.37,2013-04-15 12:04:00,
2013-04-15 05:10:00,44.6,33.2,29.59,SE,138,3.0,5.0,64,0.00,CLR,,0.00,WeatherDisplay:10.37,2013-04-15 12:10:00,
2013-04-15 05:15:00,44.6,33.2,29.59,SE,126,3.0,6.0,64,0.00,CLR,,0.00,WeatherDisplay:10.37,2013-04-15 12:15:00,
2013-04-15 05:20:00,44.6,33.2,29.59,ENE,71,3.0,6.0,64,0.00,CLR,,0.00,WeatherDisplay:10.37,2013-04-15 12:20:00,
2013-04-15 05:25:00,44.6,33.2,29.59,NE,39,2.0,5.0,64,0.00,CLR,,0.00,WeatherDisplay:10.37,2013-04-15 12:25:00,
2013-04-15 05:35:00,44.6,33.2,29.62,NNE,31,0.0,5.0,64,0.00,CLR,,0.00,WeatherDisplay:10.37,2013-04-15 12:35:00,
2013-04-15 05:45:00,44.6,33.2,29.62,NNW,332,2.0,5.0,64,0.00,CLR,,0.00,WeatherDisplay:10.37,2013-04-15 12:45:00,
2013-04-15 05:50:00,44.6,33.2,29.62,NNE,17,0.0,5.0,64,0.00,CLR,,0.00,WeatherDisplay:10.37,2013-04-15 12:50:00,
2013-04-15 05:59:00,44.6,33.2,29.62,NE,34,0.0,3.0,64,0.00,CLR,,0.00,WeatherDisplay:10.37,2013-04-15 12:59:00,
2013-04-15 06:10:00,44.6,33.2,29.62,ESE,112,0.0,3.0,64,0.00,CLR,,0.00,WeatherDisplay:10.37,2013-04-15 13:10:00,
2013-04-15 06:15:00,44.6,33.2,29.62,East,98,2.0,6.0,64,0.00,CLR,,0.00,WeatherDisplay:10.37,2013-04-15 13:15:00,
2013-04-15 06:20:00,44.6,33.2,29.62,ENE,73,0.0,4.0,64,0.00,CLR,,0.00,WeatherDisplay:10.37,2013-04-15 13:20:00,
2013-04-15 06:25:00,44.6,33.2,29.62,NNE,19,2.0,6.0,64,0.00,CLR,,0.00,WeatherDisplay:10.37,2013-04-15 13:25:00,
2013-04-15 06:30:00,44.6,33.2,29.62,ESE,117,2.0,6.0,64,0.00,CLR,,0.00,WeatherDisplay:10.37,2013-04-15 13:30:00,
2013-04-15 06:35:00,44.6,33.2,29.62,ESE,111,3.0,6.0,64,0.00,CLR,,0.00,WeatherDisplay:10.37,2013-04-15 13:35:00,
2013-04-15 06:44:00,44.6,33.2,29.62,East,92,0.0,5.0,64,0.00,CLR,,0.00,WeatherDisplay:10.37,2013-04-15 13:44:00,
2013-04-15 06:49:00,44.6,33.2,29.62,ESE,102,0.0,6.0,64,0.00,CLR,,0.00,WeatherDisplay:10.37,2013-04-15 13:49:00,
2013-04-15 06:55:00,44.6,33.2,29.62,ESE,109,0.0,4.0,64,0.00,CLR,,0.00,WeatherDisplay:10.37,2013-04-15 13:55:00,
2013-04-15 07:04:00,44.6,33.2,29.62,East,89,0.0,5.0,64,0.00,CLR,,0.00,WeatherDisplay:10.37,2013-04-15 14:04:00,
2013-04-15 07:10:00,44.6,33.2,29.62,NNE,33,2.0,6.0,64,0.00,CLR,,0.00,WeatherDisplay:10.37,2013-04-15 14:10:00,
2013-04-15 07:20:00,44.6,33.2,29.65,SSE,153,2.0,6.0,64,0.00,CLR,,0.00,WeatherDisplay:10.37,2013-04-15 14:20:00,
2013-04-15 07:30:00,44.6,33.2,29.62,North,1,0.0,3.0,64,0.00,CLR,,0.00,WeatherDisplay:10.37,2013-04-15 14:30:00,
2013-04-15 07:34:00,44.6,33.2,29.62,NNE,32,0.0,4.0,64,0.00,CLR,,0.00,WeatherDisplay:10.37,2013-04-15 14:34:00,
2013-04-15 07:40:00,44.6,33.2,29.62,NNW,341,0.0,4.0,64,0.00,CLR,,0.00,WeatherDisplay:10.37,2013-04-15 14:40:00,
2013-04-15 07:45:00,44.6,33.2,29.65,WNW,300,0.0,5.0,64,0.00,CLR,,0.00,WeatherDisplay:10.37,2013-04-15 14:45:00,
2013-04-15 07:54:00,44.6,33.2,29.65,North,358,2.0,6.0,64,0.00,CLR,,0.00,WeatherDisplay:10.37,2013-04-15 14:54:00,
2013-04-15 08:00:00,44.6,33.2,29.65,NNW,342,2.0,5.0,64,0.00,CLR,,0.00,WeatherDisplay:10.37,2013-04-15 15:00:00,
2013-04-15 08:05:00,44.6,33.2,29.65,NNW,343,2.0,5.0,64,0.00,CLR,,0.00,WeatherDisplay:10.37,2013-04-15 15:05:00,
2013-04-15 08:10:00,44.6,33.2,29.65,North,355,0.0,5.0,64,0.00,CLR,,0.00,WeatherDisplay:10.37,2013-04-15 15:10:00,
2013-04-15 08:20:00,44.6,33.2,29.65,NNW,342,2.0,6.0,64,0.00,CLR,,0.00,WeatherDisplay:10.37,2013-04-15 15:20:00,
2013-04-15 08:25:00,44.6,33.2,29.65,NNW,332,5.0,7.0,64,0.00,CLR,,0.00,WeatherDisplay:10.37,2013-04-15 15:25:00,
2013-04-15 08:30:00,44.6,33.2,29.65,NNW,348,0.0,4.0,64,0.00,CLR,,0.00,WeatherDisplay:10.37,2013-04-15 15:30:00,
2013-04-15 08:40:00,44.6,33.2,29.65,North,1,0.0,7.0,64,0.00,CLR,,0.00,WeatherDisplay:10.37,2013-04-15 15:40:00,
2013-04-15 08:50:00,44.6,33.2,29.65,North,358,1.0,5.0,64,0.00,CLR,,0.00,WeatherDisplay:10.37,2013-04-15 15:50:00,
2013-04-15 08:59:00,44.6,33.2,29.65,North,11,2.0,5.0,64,0.00,CLR,,0.00,WeatherDisplay:10.37,2013-04-15 15:59:00,
2013-04-15 09:04:00,44.6,33.2,29.65,North,4,3.0,6.0,64,0.00,CLR,,0.00,WeatherDisplay:10.37,2013-04-15 16:04:00,
2013-04-15 09:14:00,44.6,33.2,29.65,East,79,0.0,8.0,64,0.00,CLR,,0.00,WeatherDisplay:10.37,2013-04-15 16:14:00,
2013-04-15 09:20:00,44.6,33.2,29.65,NE,37,1.0,5.0,64,0.00,CLR,,0.00,WeatherDisplay:10.37,2013-04-15 16:20:00,
2013-04-15 09:24:00,44.6,33.2,29.65,NNW,344,2.0,8.0,64,0.00,CLR,,0.00,WeatherDisplay:10.37,2013-04-15 16:24:00,
2013-04-15 09:30:00,47.8,36.2,29.65,SSW,203,2.0,8.0,64,0.00,CLR,,0.00,WeatherDisplay:10.37,2013-04-15 16:30:00,
2013-04-15 09:40:00,52.7,21.3,29.65,NE,44,2.0,10.0,29,0.00,CLR,,0.00,WeatherDisplay:10.37,2013-04-15 16:40:00,
2013-04-15 09:50:00,53.5,21.1,29.65,NNW,331,3.0,8.0,28,0.00,CLR,,0.00,WeatherDisplay:10.37,2013-04-15 16:50:00,
2013-04-15 09:59:00,54.4,21.0,29.65,North,358,2.0,6.0,27,0.00,CLR,,0.00,WeatherDisplay:10.37,2013-04-15 16:59:00,
2013-04-15 10:04:00,54.5,21.2,29.65,ENE,61,0.0,6.0,27,0.00,CLR,,0.00,WeatherDisplay:10.37,2013-04-15 17:04:00,
2013-04-15 10:10:00,54.5,21.2,29.65,SW,221,2.0,8.0,27,0.00,CLR,,0.00,WeatherDisplay:10.37,2013-04-15 17:10:00,
2013-04-15 10:14:00,54.5,21.2,29.65,WNW,300,2.0,5.0,27,0.00,CLR,,0.00,WeatherDisplay:10.37,2013-04-15 17:14:00,
2013-04-15 10:20:00,54.5,21.2,29.65,NW,322,0.0,5.0,27,0.00,CLR,,0.00,WeatherDisplay:10.37,2013-04-15 17:20:00,
2013-04-15 10:24:00,54.5,21.2,29.65,North,3,3.0,6.0,27,0.00,CLR,,0.00,WeatherDisplay:10.37,2013-04-15 17:24:00,
2013-04-15 10:30:00,54.9,21.5,29.65,ENE,63,2.0,5.0,27,0.00,CLR,,0.00,WeatherDisplay:10.37,2013-04-15 17:30:00,
2013-04-15 10:34:00,55.4,21.0,29.65,ENE,66,2.0,6.0,26,0.00,CLR,,0.00,WeatherDisplay:10.37,2013-04-15 17:34:00,
2013-04-15 10:40:00,54.9,19.7,29.65,NNE,17,1.0,8.0,25,0.00,CLR,,0.00,WeatherDisplay:10.37,2013-04-15 17:40:00,
2013-04-15 10:44:00,55.1,19.9,29.65,NNE,15,5.0,8.0,25,0.00,CLR,,0.00,WeatherDisplay:10.37,2013-04-15 17:44:00,
2013-04-15 10:50:00,55.0,19.8,29.65,NE,45,0.0,5.0,25,0.00,CLR,,0.00,WeatherDisplay:10.37,2013-04-15 17:50:00,
2013-04-15 10:54:00,55.6,20.3,29.65,North,10,6.0,10.0,25,0.00,CLR,,0.00,WeatherDisplay:10.37,2013-04-15 17:54:00,
2013-04-15 11:04:00,55.6,20.3,29.68,NNE,13,3.0,6.0,25,0.00,CLR,,0.00,WeatherDisplay:10.37,2013-04-15 18:04:00,
2013-04-15 11:10:00,55.6,20.3,29.68,NNE,14,5.0,9.0,25,0.00,CLR,,0.00,WeatherDisplay:10.37,2013-04-15 18:10:00,
2013-04-15 11:15:00,55.6,20.3,29.68,North,3,5.0,7.0,25,0.00,CLR,,0.00,WeatherDisplay:10.37,2013-04-15 18:15:00,
2013-04-15 11:20:00,56.5,21.0,29.68,North,10,5.0,8.0,25,0.00,CLR,,0.00,WeatherDisplay:10.37,2013-04-15 18:20:00,
2013-04-15 11:30:00,57.1,20.6,29.68,NNE,25,5.0,9.0,24,0.00,CLR,,0.00,WeatherDisplay:10.37,2013-04-15 18:30:00,
2013-04-15 11:34:00,57.5,20.9,29.68,NNW,343,5.0,8.0,24,0.00,CLR,,0.00,WeatherDisplay:10.37,2013-04-15 18:34:00,
2013-04-15 11:40:00,57.2,20.7,29.68,NNE,14,1.0,8.0,24,0.00,CLR,,0.00,WeatherDisplay:10.37,2013-04-15 18:40:00,
2013-04-15 11:44:00,57.4,20.8,29.68,NNE,13,3.0,6.0,24,0.00,CLR,,0.00,WeatherDisplay:10.37,2013-04-15 18:44:00,
2013-04-15 11:50:00,57.9,21.3,29.68,North,351,5.0,10.0,24,0.00,CLR,,0.00,WeatherDisplay:10.37,2013-04-15 18:50:00,
2013-04-15 11:59:00,56.8,21.3,29.68,NNE,13,6.0,9.0,25,0.00,CLR,,0.00,WeatherDisplay:10.37,2013-04-15 18:59:00,
2013-04-15 12:04:00,56.3,20.9,29.68,NE,42,5.0,10.0,25,0.00,CLR,,0.00,WeatherDisplay:10.37,2013-04-15 19:04:00,
2013-04-15 12:10:00,56.6,21.1,29.68,NNE,21,7.0,12.0,25,0.00,CLR,,0.00,WeatherDisplay:10.37,2013-04-15 19:10:00,
2013-04-15 12:14:00,56.6,21.2,29.68,NNE,15,5.0,10.0,25,0.00,CLR,,0.00,WeatherDisplay:10.37,2013-04-15 19:14:00,
2013-04-15 12:20:00,56.3,20.9,29.68,NNW,348,7.0,14.0,25,0.00,CLR,,0.00,WeatherDisplay:10.37,2013-04-15 19:20:00,
2013-04-15 12:30:00,56.6,21.1,29.68,North,350,6.0,8.0,25,0.00,CLR,,0.00,WeatherDisplay:10.37,2013-04-15 19:30:00,
2013-04-15 12:39:00,56.3,20.9,29.68,East,90,5.0,8.0,25,0.00,CLR,,0.00,WeatherDisplay:10.37,2013-04-15 19:39:00,
2013-04-15 12:44:00,56.1,20.7,29.68,NNW,348,5.0,8.0,25,0.00,CLR,,0.00,WeatherDisplay:10.37,2013-04-15 19:44:00,
2013-04-15 12:49:00,56.4,21.0,29.68,NNE,27,5.0,7.0,25,0.00,CLR,,0.00,WeatherDisplay:10.37,2013-04-15 19:49:00,
2013-04-15 12:59:00,56.7,21.2,29.68,NE,54,5.0,8.0,25,0.00,CLR,,0.00,WeatherDisplay:10.37,2013-04-15 19:59:00,
2013-04-15 13:04:00,56.7,21.2,29.68,NE,42,7.0,10.0,25,0.00,CLR,,0.00,WeatherDisplay:10.37,2013-04-15 20:04:00,
2013-04-15 13:10:00,56.1,20.7,29.68,North,352,3.0,12.0,25,0.00,CLR,,0.00,WeatherDisplay:10.37,2013-04-15 20:10:00,
2013-04-15 13:15:00,56.3,20.9,29.68,ENE,64,6.0,9.0,25,0.00,CLR,,0.00,WeatherDisplay:10.37,2013-04-15 20:15:00,
2013-04-15 13:20:00,56.0,20.7,29.68,ENE,68,6.0,10.0,25,0.00,CLR,,0.00,WeatherDisplay:10.37,2013-04-15 20:20:00,
2013-04-15 13:24:00,55.9,20.6,29.68,NNE,16,6.0,10.0,25,0.00,CLR,,0.00,WeatherDisplay:10.37,2013-04-15 20:24:00,
2013-04-15 13:29:00,56.3,20.9,29.68,ENE,59,5.0,7.0,25,0.00,CLR,,0.00,WeatherDisplay:10.37,2013-04-15 20:29:00,
2013-04-15 13:34:00,56.1,20.7,29.68,NE,43,6.0,13.0,25,0.00,CLR,,0.00,WeatherDisplay:10.37,2013-04-15 20:34:00,
2013-04-15 13:40:00,56.1,20.7,29.68,North,357,7.0,13.0,25,0.00,CLR,,0.00,WeatherDisplay:10.37,2013-04-15 20:40:00,
2013-04-15 13:44:00,56.1,20.7,29.68,NNE,13,6.0,23.0,25,0.00,CLR,,0.00,WeatherDisplay:10.37,2013-04-15 20:44:00,
2013-04-15 13:50:00,56.1,20.7,29.68,North,359,6.0,16.0,25,0.00,CLR,,0.00,WeatherDisplay:10.37,2013-04-15 20:50:00,
2013-04-15 13:54:00,56.1,20.7,29.68,North,10,6.0,16.0,25,0.00,CLR,,0.00,WeatherDisplay:10.37,2013-04-15 20:54:00,
2013-04-15 13:59:00,55.4,20.1,29.68,NE,45,7.0,12.0,25,0.00,CLR,,0.00,WeatherDisplay:10.37,2013-04-15 20:59:00,
2013-04-15 14:04:00,54.9,19.7,29.68,ENE,58,3.0,9.0,25,0.00,CLR,,0.00,WeatherDisplay:10.37,2013-04-15 21:04:00,
2013-04-15 14:10:00,54.8,19.6,29.68,NE,54,6.0,13.0,25,0.00,CLR,,0.00,WeatherDisplay:10.37,2013-04-15 21:10:00,
2013-04-15 14:14:00,54.7,20.4,29.65,NE,54,6.0,10.0,26,0.00,CLR,,0.00,WeatherDisplay:10.37,2013-04-15 21:14:00,
2013-04-15 14:24:00,54.1,19.9,29.65,NE,43,6.0,13.0,26,0.00,CLR,,0.00,WeatherDisplay:10.37,2013-04-15 21:24:00,
2013-04-15 14:30:00,53.8,19.7,29.68,East,80,6.0,22.0,26,0.00,CLR,,0.00,WeatherDisplay:10.37,2013-04-15 21:30:00,
2013-04-15 14:34:00,53.5,19.4,29.68,ENE,78,8.0,12.0,26,0.00,CLR,,0.00,WeatherDisplay:10.37,2013-04-15 21:34:00,
2013-04-15 14:39:00,53.6,19.5,29.68,NNE,30,6.0,14.0,26,0.00,CLR,,0.00,WeatherDisplay:10.37,2013-04-15 21:39:00,
2013-04-15 14:44:00,53.2,19.1,29.65,North,8,7.0,22.0,26,0.00,CLR,,0.00,WeatherDisplay:10.37,2013-04-15 21:44:00,
2013-04-15 14:50:00,53.6,19.5,29.65,East,92,8.0,13.0,26,0.00,CLR,,0.00,WeatherDisplay:10.37,2013-04-15 21:50:00,
2013-04-15 14:59:00,53.1,19.0,29.65,NE,45,6.0,13.0,26,0.00,CLR,,0.00,WeatherDisplay:10.37,2013-04-15 21:59:00,
2013-04-15 15:04:00,53.4,18.4,29.65,NE,34,5.0,12.0,25,0.00,CLR,,0.00,WeatherDisplay:10.37,2013-04-15 22:04:00,
2013-04-15 15:10:00,53.2,19.1,29.65,NE,42,7.0,15.0,26,0.00,CLR,,0.00,WeatherDisplay:10.37,2013-04-15 22:10:00,
2013-04-15 15:20:00,52.8,18.8,29.65,ENE,75,7.0,12.0,26,0.00,CLR,,0.00,WeatherDisplay:10.37,2013-04-15 22:20:00,
2013-04-15 15:30:00,52.5,18.6,29.65,NE,42,6.0,13.0,26,0.00,CLR,,0.00,WeatherDisplay:10.37,2013-04-15 22:30:00,
2013-04-15 15:34:00,52.5,18.6,29.65,NNE,25,7.0,17.0,26,0.00,CLR,,0.00,WeatherDisplay:10.37,2013-04-15 22:34:00,
2013-04-15 15:39:00,52.7,18.7,29.65,NE,45,8.0,17.0,26,0.00,CLR,,0.00,WeatherDisplay:10.37,2013-04-15 22:39:00,
2013-04-15 15:44:00,52.6,18.6,29.65,East,87,8.0,16.0,26,0.00,CLR,,0.00,WeatherDisplay:10.37,2013-04-15 22:44:00,
2013-04-15 15:50:00,52.3,18.4,29.65,NE,50,8.0,13.0,26,0.00,CLR,,0.00,WeatherDisplay:10.37,2013-04-15 22:50:00,
2013-04-15 15:59:00,51.8,17.9,29.65,NNE,28,7.0,22.0,26,0.00,CLR,,0.00,WeatherDisplay:10.37,2013-04-15 22:59:00,
2013-04-15 16:04:00,51.6,17.8,29.65,NE,54,8.0,16.0,26,0.00,CLR,,0.00,WeatherDisplay:10.37,2013-04-15 23:04:00,
2013-04-15 16:10:00,51.6,17.8,29.65,ENE,77,6.0,16.0,26,0.00,CLR,,0.00,WeatherDisplay:10.37,2013-04-15 23:10:00,
2013-04-15 16:14:00,51.4,17.6,29.65,NE,56,8.0,15.0,26,0.00,CLR,,0.00,WeatherDisplay:10.37,2013-04-15 23:14:00,
2013-04-15 16:19:00,51.3,17.5,29.65,ENE,66,6.0,15.0,26,0.00,CLR,,0.00,WeatherDisplay:10.37,2013-04-15 23:19:00,
2013-04-15 16:24:00,51.5,17.7,29.65,East,87,5.0,10.0,26,0.00,CLR,,0.00,WeatherDisplay:10.37,2013-04-15 23:24:00,
2013-04-15 16:30:00,51.3,17.5,29.62,ENE,62,6.0,12.0,26,0.00,CLR,,0.00,WeatherDisplay:10.37,2013-04-15 23:30:00,
2013-04-15 16:40:00,50.7,17.0,29.62,North,7,7.0,15.0,26,0.00,CLR,,0.00,WeatherDisplay:10.37,2013-04-15 23:40:00,
2013-04-15 16:50:00,50.5,16.9,29.65,East,86,7.0,15.0,26,0.00,CLR,,0.00,WeatherDisplay:10.37,2013-04-15 23:50:00,
2013-04-15 16:59:00,50.4,17.6,29.62,NE,56,6.0,9.0,27,0.00,CLR,,0.00,WeatherDisplay:10.37,2013-04-15 23:59:00,
2013-04-15 17:04:00,50.0,17.3,29.62,NNE,28,6.0,12.0,27,0.00,CLR,,0.00,WeatherDisplay:10.37,2013-04-16 00:04:00,
2013-04-15 17:10:00,50.0,17.3,29.62,ENE,67,6.0,9.0,27,0.00,CLR,,0.00,WeatherDisplay:10.37,2013-04-16 00:10:00,
2013-04-15 17:14:00,49.6,17.0,29.62,ESE,119,5.0,8.0,27,0.00,CLR,,0.00,WeatherDisplay:10.37,2013-04-16 00:14:00,
2013-04-15 17:20:00,49.9,17.2,29.62,NNE,19,6.0,12.0,27,0.00,CLR,,0.00,WeatherDisplay:10.37,2013-04-16 00:20:00,
2013-04-15 17:25:00,49.6,17.8,29.62,NE,34,7.0,15.0,28,0.00,CLR,,0.00,WeatherDisplay:10.37,2013-04-16 00:25:00,
2013-04-15 17:30:00,49.4,17.6,29.65,East,82,6.0,10.0,28,0.00,CLR,,0.00,WeatherDisplay:10.37,2013-04-16 00:30:00,
2013-04-15 17:34:00,49.4,17.6,29.65,South,179,5.0,13.0,28,0.00,CLR,,0.00,WeatherDisplay:10.37,2013-04-16 00:34:00,
2013-04-15 17:40:00,49.3,18.3,29.65,ENE,70,6.0,17.0,29,0.00,CLR,,0.00,WeatherDisplay:10.37,2013-04-16 00:40:00,
2013-04-15 17:44:00,49.3,18.3,29.62,ENE,58,5.0,15.0,29,0.00,CLR,,0.00,WeatherDisplay:10.37,2013-04-16 00:44:00,
2013-04-15 17:50:00,49.5,18.5,29.62,ENE,77,6.0,17.0,29,0.00,CLR,,0.00,WeatherDisplay:10.37,2013-04-16 00:50:00,
2013-04-15 17:59:00,49.1,18.2,29.62,ENE,60,2.0,7.0,29,0.00,CLR,,0.00,WeatherDisplay:10.37,2013-04-16 00:59:00,
2013-04-15 18:04:00,48.9,18.0,29.62,ENE,66,6.0,10.0,29,0.00,CLR,,0.00,WeatherDisplay:10.37,2013-04-16 01:04:00,
2013-04-15 18:10:00,48.7,17.9,29.62,North,9,6.0,13.0,29,0.00,CLR,,0.00,WeatherDisplay:10.37,2013-04-16 01:10:00,
2013-04-15 18:14:00,48.4,17.5,29.65,North,355,6.0,14.0,29,0.00,CLR,,0.00,WeatherDisplay:10.37,2013-04-16 01:14:00,
2013-04-15 18:20:00,48.3,18.3,29.65,North,358,7.0,13.0,30,0.00,CLR,,0.00,WeatherDisplay:10.37,2013-04-16 01:20:00,
2013-04-15 18:24:00,48.0,18.0,29.65,NNE,31,5.0,16.0,30,0.00,CLR,,0.00,WeatherDisplay:10.37,2013-04-16 01:24:00,
2013-04-15 18:29:00,47.8,18.6,29.62,North,10,5.0,12.0,31,0.00,CLR,,0.00,WeatherDisplay:10.37,2013-04-16 01:29:00,
2013-04-15 18:34:00,47.7,18.5,29.62,NNE,14,6.0,12.0,31,0.00,CLR,,0.00,WeatherDisplay:10.37,2013-04-16 01:34:00,
2013-04-15 18:39:00,47.5,19.1,29.62,North,353,8.0,14.0,32,0.00,CLR,,0.00,WeatherDisplay:10.37,2013-04-16 01:39:00,
2013-04-15 18:44:00,47.3,19.6,29.62,NNW,343,1.0,15.0,33,0.00,CLR,,0.00,WeatherDisplay:10.37,2013-04-16 01:44:00,
2013-04-15 18:50:00,47.3,19.6,29.62,North,8,5.0,10.0,33,0.00,CLR,,0.00,WeatherDisplay:10.37,2013-04-16 01:50:00,
2013-04-15 18:59:00,46.9,19.3,29.62,NNW,341,6.0,12.0,33,0.00,CLR,,0.00,WeatherDisplay:10.37,2013-04-16 01:59:00,
2013-04-15 19:04:00,46.8,20.5,29.62,NNE,31,5.0,10.0,35,0.00,CLR,,0.00,WeatherDisplay:10.37,2013-04-16 02:04:00,
2013-04-15 19:09:00,46.6,20.4,29.62,NE,36,5.0,7.0,35,0.00,CLR,,0.00,WeatherDisplay:10.37,2013-04-16 02:09:00,
2013-04-15 19:14:00,46.4,20.2,29.62,NE,56,5.0,8.0,35,0.00,CLR,,0.00,WeatherDisplay:10.37,2013-04-16 02:14:00,
2013-04-15 19:20:00,46.2,20.7,29.62,NE,46,6.0,17.0,36,0.00,CLR,,0.00,WeatherDisplay:10.37,2013-04-16 02:20:00,
2013-04-15 19:29:00,45.8,21.6,29.62,NE,39,6.0,10.0,38,0.00,CLR,,0.00,WeatherDisplay:10.37,2013-04-16 02:29:00,
2013-04-15 19:34:00,45.7,21.5,29.62,NNE,28,3.0,10.0,38,0.00,CLR,,0.00,WeatherDisplay:10.37,2013-04-16 02:34:00,
2013-04-15 19:39:00,45.5,21.3,29.62,NE,35,2.0,12.0,38,0.00,CLR,,0.00,WeatherDisplay:10.37,2013-04-16 02:39:00,
2013-04-15 19:44:00,45.3,21.2,29.62,NE,40,3.0,7.0,38,0.00,CLR,,0.00,WeatherDisplay:10.37,2013-04-16 02:44:00,
2013-04-15 19:50:00,45.1,21.0,29.62,NE,50,3.0,7.0,38,0.00,CLR,,0.00,WeatherDisplay:10.37,2013-04-16 02:50:00,
2013-04-15 19:59:00,45.3,21.8,29.62,ENE,73,5.0,9.0,39,0.00,CLR,,0.00,WeatherDisplay:10.37,2013-04-16 02:59:00,
2013-04-15 20:04:00,45.1,21.0,29.62,NNE,26,3.0,8.0,38,0.00,CLR,,0.00,WeatherDisplay:10.37,2013-04-16 03:04:00,
2013-04-15 20:10:00,45.1,21.0,29.62,NE,43,3.0,8.0,38,0.00,CLR,,0.00,WeatherDisplay:10.37,2013-04-16 03:10:00,
2013-04-15 20:20:00,45.0,20.8,29.65,NE,42,2.0,8.0,38,0.00,CLR,,0.00,WeatherDisplay:10.37,2013-04-16 03:20:00,
2013-04-15 20:24:00,45.0,20.8,29.65,NE,55,8.0,14.0,38,0.00,CLR,,0.00,WeatherDisplay:10.37,2013-04-16 03:24:00,
2013-04-15 20:30:00,45.0,20.8,29.65,NE,54,3.0,10.0,38,0.00,CLR,,0.00,WeatherDisplay:10.37,2013-04-16 03:30:00,
2013-04-15 20:39:00,44.8,20.7,29.65,East,79,5.0,8.0,38,0.00,CLR,,0.00,WeatherDisplay:10.37,2013-04-16 03:39:00,
2013-04-15 20:50:00,44.6,21.1,29.65,ENE,65,2.0,6.0,39,0.00,CLR,,0.00,WeatherDisplay:10.37,2013-04-16 03:50:00,
2013-04-15 20:54:00,44.6,21.1,29.65,East,80,5.0,8.0,39,0.00,CLR,,0.00,WeatherDisplay:10.37,2013-04-16 03:54:00,
2013-04-15 20:59:00,44.9,22.0,29.65,ENE,72,3.0,10.0,40,0.00,CLR,,0.00,WeatherDisplay:10.37,2013-04-16 03:59:00,
2013-04-15 21:05:00,44.8,21.9,29.65,NE,41,5.0,8.0,40,0.00,CLR,,0.00,WeatherDisplay:10.37,2013-04-16 04:05:00,
2013-04-15 21:09:00,44.8,21.9,29.65,NNE,27,3.0,8.0,40,0.00,CLR,,0.00,WeatherDisplay:10.37,2013-04-16 04:09:00,
2013-04-15 21:14:00,44.8,21.9,29.68,NNE,33,5.0,8.0,40,0.00,CLR,,0.00,WeatherDisplay:10.37,2013-04-16 04:14:00,
2013-04-15 21:19:00,44.8,21.3,29.68,ENE,70,5.0,8.0,39,0.00,CLR,,0.00,WeatherDisplay:10.37,2013-04-16 04:19:00,
2013-04-15 21:24:00,44.8,21.3,29.68,East,100,5.0,8.0,39,0.00,CLR,,0.00,WeatherDisplay:10.37,2013-04-16 04:24:00,
2013-04-15 21:30:00,44.9,21.4,29.68,ESE,106,3.0,7.0,39,0.00,CLR,,0.00,WeatherDisplay:10.37,2013-04-16 04:30:00,
2013-04-15 21:39:00,44.8,21.3,29.68,ENE,72,5.0,12.0,39,0.00,CLR,,0.00,WeatherDisplay:10.37,2013-04-16 04:39:00,
2013-04-15 21:44:00,44.6,21.7,29.68,East,92,3.0,8.0,40,0.00,CLR,,0.00,WeatherDisplay:10.37,2013-04-16 04:44:00,
2013-04-15 21:49:00,44.6,21.7,29.68,SSE,147,3.0,8.0,40,0.00,CLR,,0.00,WeatherDisplay:10.37,2013-04-16 04:49:00,
2013-04-15 21:54:00,44.8,21.9,29.68,SE,138,2.0,6.0,40,0.00,CLR,,0.00,WeatherDisplay:10.37,2013-04-16 04:54:00,
2013-04-15 21:59:00,44.6,21.7,29.68,East,101,0.0,7.0,40,0.00,CLR,,0.00,WeatherDisplay:10.37,2013-04-16 04:59:00,
2013-04-15 22:04:00,44.4,21.6,29.68,NE,38,2.0,6.0,40,0.00,CLR,,0.00,WeatherDisplay:10.37,2013-04-16 05:04:00,
2013-04-15 22:09:00,44.4,21.0,29.68,NE,42,2.0,5.0,39,0.00,CLR,,0.00,WeatherDisplay:10.37,2013-04-16 05:09:00,
2013-04-15 22:14:00,44.4,21.0,29.68,NE,38,2.0,12.0,39,0.00,CLR,,0.00,WeatherDisplay:10.37,2013-04-16 05:14:00,
2013-04-15 22:19:00,44.5,21.0,29.68,NNE,13,5.0,8.0,39,0.00,CLR,,0.00,WeatherDisplay:10.37,2013-04-16 05:19:00,
2013-04-15 22:24:00,44.4,21.0,29.68,North,5,0.0,6.0,39,0.00,CLR,,0.00,WeatherDisplay:10.37,2013-04-16 05:24:00,
2013-04-15 22:29:00,44.6,21.1,29.68,NNW,348,2.0,8.0,39,0.00,CLR,,0.00,WeatherDisplay:10.37,2013-04-16 05:29:00,
2013-04-15 22:34:00,44.6,21.1,29.68,NNW,343,3.0,8.0,39,0.00,CLR,,0.00,WeatherDisplay:10.37,2013-04-16 05:34:00,
2013-04-15 22:40:00,44.6,21.1,29.68,NNW,342,2.0,6.0,39,0.00,CLR,,0.00,WeatherDisplay:10.37,2013-04-16 05:40:00,
2013-04-15 22:49:00,44.4,21.0,29.68,NNE,12,3.0,5.0,39,0.00,CLR,,0.00,WeatherDisplay:10.37,2013-04-16 05:49:00,
2013-04-15 22:54:00,44.4,21.0,29.68,NNE,17,0.0,5.0,39,0.00,CLR,,0.00,WeatherDisplay:10.37,2013-04-16 05:54:00,
2013-04-15 22:59:00,44.2,20.8,29.71,North,6,0.0,6.0,39,0.00,CLR,,0.00,WeatherDisplay:10.37,2013-04-16 05:59:00,
2013-04-15 23:04:00,44.2,20.8,29.71,NE,41,0.0,5.0,39,0.00,CLR,,0.00,WeatherDisplay:10.37,2013-04-16 06:04:00,
2013-04-15 23:09:00,44.2,20.8,29.71,East,85,2.0,6.0,39,0.00,CLR,,0.00,WeatherDisplay:10.37,2013-04-16 06:09:00,
2013-04-15 23:14:00,44.2,20.8,29.68,ENE,72,2.0,6.0,39,0.00,CLR,,0.00,WeatherDisplay:10.37,2013-04-16 06:14:00,
2013-04-15 23:19:00,44.2,20.8,29.68,ENE,60,0.0,5.0,39,0.00,CLR,,0.00,WeatherDisplay:10.37,2013-04-16 06:19:00,
2013-04-15 23:24:00,44.2,20.8,29.68,ENE,76,0.0,5.0,39,0.00,CLR,,0.00,WeatherDisplay:10.37,2013-04-16 06:24:00,
2013-04-15 23:29:00,44.2,20.8,29.68,ENE,73,2.0,4.0,39,0.00,CLR,,0.00,WeatherDisplay:10.37,2013-04-16 06:29:00,
2013-04-15 23:34:00,44.2,20.8,29.68,East,94,2.0,5.0,39,0.00,CLR,,0.00,WeatherDisplay:10.37,2013-04-16 06:34:00,
2013-04-15 23:40:00,44.2,20.8,29.68,East,83,0.0,4.0,39,0.00,CLR,,0.00,WeatherDisplay:10.37,2013-04-16 06:40:00,
2013-04-15 23:49:00,44.2,20.8,29.71,NE,37,0.0,5.0,39,0.00,CLR,,0.00,WeatherDisplay:10.37,2013-04-16 06:49:00,
2013-04-15 23:54:00,44.2,20.8,29.71,ENE,67,3.0,6.0,39,0.00,CLR,,0.00,WeatherDisplay:10.37,2013-04-16 06:54:00,
2013-04-15 23:59:00,44.2,20.8,29.68,ESE,108,2.0,5.0,39,0.00,CLR,,0.00,WeatherDisplay:10.37,2013-04-16 06:59:00,